Location: Doln� Novina
(50.6588°N, 14.8648°E)
Time: 19:12:25
(UTC+00:00)

Daily predictions for brighter satellites

Satellite Brightness Start Highest point End
(mag) Time Altitude Azimuth Time Altitude Azimuth Time Altitude Azimuth
Meteor 1-14 Rocket 4.2 17:19:45 10° S 17:25:13 65° E 17:30:43 10° NNE
Okean O Rocket 3.8 17:21:39 10° SSW 17:25:33 32° W 17:29:29 10° NNW
Cosmos 1500 3.1 17:23:27 10° S 17:27:09 64° E 17:30:52 10° NNE
Cosmos 2360 Rocket 2.2 17:21:36 10° SSW 17:27:14 74° ESE 17:32:55 10° NNE
SJ-11-01 4.3 17:23:36 10° SSE 17:28:15 69° ENE 17:32:58 10° N
Okean 1-7 3.1 17:25:03 10° N 17:29:22 56° ENE 17:33:37 10° SSE
Cosmos 1943 Rocket 4.2 17:26:37 10° N 17:29:26 14° NNE 17:32:14 10° NE
USA 186 3.3 17:28:30 10° E 17:29:40 12° ENE 17:30:52 10° NE
OBJECT-B 2.9 17:29:43 10° E 17:30:56 12° ENE 17:32:09 10° NE
Cosmos 2341 Rocket 4.2 17:25:11 10° SSE 17:31:14 51° E 17:37:14 10° NNE
PSLV R/B 4.2 17:27:19 10° NNE 17:31:15 44° E 17:35:08 10° S
Cosmos 1844 4.0 17:25:52 10° NNW 17:31:40 75° WSW 17:37:21 10° SSE
YAOGAN 1 2.5 17:29:23 10° SSE 17:33:42 80° ENE 17:38:04 10° NNW
Cosmos 2333 4.5 17:28:24 10° S 17:33:49 48° ESE 17:39:18 10° NE
Cosmos 2278 Rocket 2.9 17:29:06 10° NNW 17:34:20 36° NE 17:39:33 10° ESE
Cosmos 2237 Rocket 3.8 17:32:57 10° ESE 17:35:15 13° E 17:37:34 10° ENE
SJ 16-02 2.2 17:33:34 10° N 17:37:32 31° ENE 17:41:29 10° ESE
SAR-Lupe-4 4.1 17:34:21 10° NNE 17:37:41 35° E 17:41:00 10° SSE
FALCON 9 DEB 2.9 17:35:14 10° WNW 17:38:26 88° SSW 17:41:32 11° ESE
Meteor 1-5 Rocket 4.2 17:36:08 10° S 17:41:27 60° E 17:47:00 10° NNE
Cosmos 2218 Rocket 4.4 17:36:10 10° SSE 17:42:06 42° E 17:48:01 10° NNE
COSMO-SKYMED 1 3.2 17:38:21 10° N 17:42:40 62° WNW 17:46:57 10° SSW
Okean 3 3.9 17:38:50 10° N 17:42:53 40° ENE 17:46:56 10° SE
SL-4 R/B 2.8 17:40:03 10° W 17:43:25 38° SSW 17:46:37 10° SE
Cosmos 1980 Rocket 4.5 17:40:06 10° W 17:44:26 22° NW 17:48:47 10° NNE
SeaSat 1 3.4 17:41:09 10° NE 17:45:12 25° ESE 17:49:13 10° SSE
Cosmos 1536 3.8 17:41:55 10° SSE 17:45:15 26° E 17:48:36 10° NNE
FALCON 9 DEB 3.0 17:43:12 10° WNW 17:46:22 74° SSW 17:49:12 12° ESE
Cosmos 2242 Rocket 3.7 17:42:17 10° NNW 17:46:49 84° W 17:51:15 10° S
Gbstr 26 Del rocket 3.3 17:46:37 10° WNW 17:51:03 84° N 17:55:46 14° E
Cosmos 2333 Rocket 2.3 17:49:07 10° S 17:54:39 56° ESE 18:00:16 10° NE
Abrixas rocket 3.2 17:52:41 10° W 17:54:50 26° SSW 17:56:40 12° SE
USA 238 DEB 4.5 17:49:54 10° SSE 17:55:13 27° ESE 18:00:43 10° ENE
USA 238 4.5 17:50:03 10° SSE 17:55:20 26° ESE 18:00:48 10° ENE
Resurs 01 Rocket 3.4 17:54:07 13° ENE 17:55:34 15° NE 17:57:58 10° NNE
Meteor 2-4 Rocket 4.3 17:51:54 10° NNW 17:57:43 66° W 18:03:36 10° S
SAR-Lupe-1 4.0 17:54:35 10° NNE 17:58:10 62° ESE 18:01:43 10° S
Helios 1A Rocket 2.8 17:56:21 10° SSE 18:00:24 89° ENE 18:04:28 10° NNW
Cosmos 2322 Rocket 3.4 17:55:39 10° WSW 18:01:00 44° NW 18:06:24 10° NNE
Lacrosse 4 Rocket 1.6 17:57:35 10° SSW 18:01:56 60° ESE 18:06:23 10° NE
GP-B 3.1 17:58:08 10° S 18:02:34 86° E 18:07:03 10° N
ARGOS 3.4 17:59:13 10° S 18:04:38 76° WSW 18:10:06 10° NNW
ERBS 3.9 18:04:19 10° WNW 18:07:10 26° N 18:09:27 14° NE
Cosmos 192 4.2 18:03:30 10° SSW 18:08:23 75° ESE 18:13:20 10° NNE
CZ-4B R/B 3.6 18:06:33 10° N 18:09:12 27° WNW 18:11:53 10° SW
Cosmos 1869 Rocket 3.5 18:04:54 10° S 18:09:14 66° E 18:13:39 10° NNE
CZ-4 R/B 3.0 18:06:33 10° SSW 18:10:09 36° W 18:13:51 10° NNW
Cosmos 2219 Rocket 2.1 18:05:37 10° SSW 18:11:08 65° ESE 18:16:43 10° NE
ERS-2 2.1 18:10:10 10° NNE 18:13:51 85° WNW 18:17:30 10° SSW
CZ-2C R/B 2.6 18:08:44 10° NNE 18:14:12 71° ESE 18:19:31 10° S
FALCON 9 DEB 3.6 18:11:55 10° WNW 18:14:59 47° SSW 18:16:47 21° SE
Cosmos 1689 Rocket 2.4 18:12:35 10° N 18:15:28 63° WNW 18:18:19 10° SSW
Cosmos 1238 Rocket 2.9 18:13:41 10° SSE 18:17:26 41° E 18:20:39 10° NNE
Cosmos 1378 3.0 18:14:24 10° N 18:18:08 72° ENE 18:21:50 10° SSE
Cosmos 1980 4.4 18:14:39 10° SSE 18:19:23 28° ESE 18:24:09 10° NE
SL-08 RB Rocket 4.0 18:15:02 10° S 18:19:34 72° WSW 18:24:11 10° NNW
USA 305 2.9 18:16:01 10° WNW 18:20:20 82° NNE 18:22:40 26° ESE
NOSS 3-2 (A) 3.7 18:18:27 10° S 18:23:44 43° ESE 18:29:47 10° NE
CREW DRAGON DEMO-1 DEB 3.4 18:21:19 10° SW 18:23:54 33° SSE 18:23:59 33° SSE
FALCON 9 DEB 3.6 18:21:22 10° WNW 18:24:27 47° SSW 18:25:51 26° SSE
NOSS 3-3 (C) 4.5 18:17:37 10° NW 18:24:59 84° NE 18:32:00 16° SE
COSMOS 2428 2.6 18:20:14 10° SSW 18:25:52 70° ESE 18:31:34 10° NNE
Cosmos 1733 Rocket 3.6 18:22:39 10° SSE 18:26:36 35° E 18:30:34 10° NNE
SL-16 R/B 4.2 18:24:55 10° W 18:29:42 27° NW 18:34:31 10° NNE
Meteor 2-20 4.4 18:27:36 10° N 18:33:45 73° ENE 18:39:52 10° SSE
USA 307 2.8 18:29:47 10° WNW 18:34:05 89° N 18:35:52 34° ESE
Cosmos 2369 Rocket 3.9 18:30:30 10° N 18:34:16 18° NNE 18:36:12 15° ENE
SL-8 Rocket 4.2 18:28:31 10° SSW 18:34:44 77° W 18:40:57 10° N
USA 306 2.8 18:31:02 10° WNW 18:35:21 88° SSW 18:37:06 35° ESE
CENTAUR R/B 3.0 18:30:08 10° S 18:35:30 37° ESE 18:41:47 10° NE
Cosmos 1066 Rocket 4.4 18:30:43 10° NNW 18:36:30 79° W 18:42:20 10° S
Cosmos 1898 Rocket 3.7 18:31:37 10° NNW 18:36:45 52° ENE 18:39:11 29° ESE
NOSS 0 Rocket 4.1 18:31:26 10° S 18:37:17 47° ESE 18:43:09 10° NE
ATLAS CENTAUR R/B 3.2 18:34:23 10° W 18:37:29 25° NNW 18:40:41 10° NNE
Cosmos 1743 2.8 18:37:23 10° S 18:41:10 51° E 18:44:58 10° NNE
Cosmos 1666 4.3 18:39:40 10° SW 18:43:08 36° WNW 18:46:39 10° N
USA 308 2.8 18:40:36 10° WNW 18:44:53 83° SSW 18:46:15 42° ESE
Cosmos 2322 4.2 18:41:15 10° SW 18:46:55 62° NW 18:52:37 10° NNE
Meteor 1-23 Rocket 4.3 18:41:18 10° NNW 18:46:56 82° W 18:52:36 10° S
ASTEX 1 3.2 18:45:47 10° N 18:50:43 83° E 18:55:36 10° S
BREEZE-M DEB (TANK) 4.2 18:48:47 10° SW 18:50:07 26° SSW 18:50:07 26° SSW
Cosmos 2366 rocket 4.3 18:46:42 10° SSW 18:53:01 70° WNW 18:59:24 10° N
Cosmos 1674 Rocket 3.5 18:50:02 10° N 18:54:20 61° ENE 18:55:16 48° SE
SJ-6B 3.1 18:52:44 17° S 18:55:46 69° WSW 18:59:46 10° NNW
Cosmos 990 Rocket 3.9 18:52:04 10° NNW 18:57:17 84° ENE 18:59:41 33° SSE
Cosmos 2221 Rocket 3.9 18:53:55 10° NNW 18:58:19 68° W 19:02:10 13° S
Ariane Rocket 3.0 18:55:34 19° SSE 18:59:17 87° WSW 19:04:26 10° NNW
USA 186 3.1 18:59:36 25° WSW 19:00:12 29° W 19:02:34 10° NNW
ARIANE 5 R/B 4.2 19:01:45 22° NE 19:01:45 22° NE 19:04:26 10° N
Cosmos 2297 4.2 18:55:56 10° NNW 19:01:26 44° NE 19:02:40 38° E
OBJECT-B 1.3 19:02:10 48° SSW 19:02:45 58° W 19:05:57 10° NNW
Cosmos 1763 Rocket 3.7 18:58:05 10° S 19:03:10 47° ESE 19:08:16 10° NNE
MetOp-B 4.5 19:04:20 42° E 19:05:00 44° ENE 19:10:04 10° N
NOSS 3-2 (C) 3.5 19:00:01 10° SSW 19:05:25 49° ESE 19:08:10 30° ENE
Okean 2 4.0 19:01:36 10° N 19:04:49 41° NE 19:04:49 41° NE
Meteor 1-11 Rocket 4.5 19:01:34 10° SSW 19:07:05 54° WNW 19:12:33 10° N
Cosmos 1378 Rocket 3.4 19:04:22 10° N 19:08:50 73° ENE 19:09:21 64° SE
Cosmos 2360 Rocket 4.2 19:07:01 10° W 19:11:49 27° NW 19:16:38 10° NNE
Cosmos 468 Rocket 3.9 19:09:37 10° S 19:14:50 62° ESE 19:20:03 10° NNE
Cosmos 1943 Rocket 2.8 19:09:32 10° NNW 19:14:53 39° NE 19:15:25 38° ENE
SJ 16-02 2.8 19:12:07 10° NW 19:16:09 35° WSW 19:19:19 15° SSW
Cosmos 1821 Rocket 3.8 19:10:57 10° S 19:17:10 84° E 19:23:20 10° N
Cosmos 858 Rocket 4.3 19:12:44 10° NNW 19:17:58 76° ENE 19:18:47 61° SE
Cosmos 2237 Rocket 2.1 19:12:37 10° SSW 19:18:16 70° ESE 19:23:58 10° NNE
Cosmos 2278 Rocket 2.9 19:13:10 10° NW 19:18:37 50° WSW 19:22:11 21° S
Cosmos 1544 3.8 19:15:27 10° SSW 19:19:01 53° WNW 19:22:39 10° N
Meteor 1-21 4.1 19:16:12 10° N 19:21:55 71° ENE 19:23:05 55° SE
USA 81 4.0 19:17:36 10° S 19:22:52 81° W 19:28:10 10° N
SeaSat 1 2.9 19:18:09 10° NNE 19:23:03 62° NW 19:27:55 10° SW
SPOT 3 Rocket 3.4 19:24:24 60° SSE 19:25:24 83° ENE 19:30:40 10° NNW
Cosmos 2239 Rocket 4.4 19:20:34 10° S 19:26:52 84° E 19:33:09 10° N
Cosmos 1934 Rocket 3.8 19:30:07 57° SE 19:31:00 64° E 19:37:05 10° NNE
SME Rocket 4.3 19:23:17 10° NNE 19:31:04 68° WNW 19:36:07 10° SSW
Resurs 01 Rocket 1.6 19:31:41 80° NNW 19:31:41 80° NNW 19:35:53 10° NNW
SPOT 1/Viking Rocket 3.8 19:33:55 51° NE 19:33:55 51° NE 19:38:25 10° N
USA 234 3.2 19:33:09 54° ESE 19:33:46 56° SE 19:40:11 10° SW
USA 245 4.4 19:35:05 60° E 19:35:27 61° ENE 19:41:43 10° N
Gbstr 26 Del rocket 4.0 19:33:13 10° WNW 19:37:57 49° SSW 19:38:19 48° SSW
Cosmos 2333 Rocket 3.8 19:34:03 10° WSW 19:39:13 34° NW 19:44:28 10° NNE
Cosmos 1937 Rocket 3.5 19:34:11 10° NNW 19:39:21 73° WSW 19:39:50 67° SSW
Cosmos 2123 Rocket 3.9 19:33:12 10° N 19:39:29 89° E 19:41:02 54° S
Lacrosse 4 Rocket 3.6 19:37:11 10° W 19:40:58 27° NW 19:44:49 10° NNE
IGS 5A 4.4 19:44:27 44° NNW 19:44:27 44° NNW 19:47:20 10° NNW
SPOT 5 4.5 19:45:46 22° NNE 19:45:46 22° NNE 19:47:39 10° N
USA 238 DEB 3.6 19:38:49 10° SW 19:45:26 82° NW 19:52:27 10° NE
USA 238 3.6 19:38:55 10° SW 19:45:33 83° NW 19:52:33 10° NE
Cosmos 1842 4.4 19:42:11 10° NNW 19:45:12 43° NW 19:45:12 43° NW
Cosmos 2219 Rocket 4.0 19:50:39 10° WSW 19:55:32 30° NW 20:00:28 10° NNE
Terra 3.6 20:00:53 22° NNE 20:00:53 22° NNE 20:02:53 10° N
ERS-1 Rocket 4.1 20:03:06 34° NNE 20:03:06 34° NNE 20:06:09 10° N
Cosmos 1980 4.2 19:57:35 10° SW 20:03:08 58° NW 20:08:44 10° NNE
Meteor 2-9 Rocket 4.5 20:10:29 59° W 20:10:36 59° WNW 20:15:53 10° N
Spot 2 Rocket 4.2 20:14:35 49° NNW 20:14:35 49° NNW 20:18:18 10° NNW
NOSS 3-2 (A) 4.1 20:08:43 10° WSW 20:14:28 54° NW 20:21:11 10° NE
Cosmos 1605 Rocket 4.2 20:15:57 66° NNE 20:15:57 66° NNE 20:21:22 10° N
ATLAS CENTAUR R/B 4.2 20:16:30 10° NNW 20:17:38 11° N 20:17:48 11° N
Cosmos 2369 Rocket 2.9 20:13:53 10° NNW 20:18:00 46° N 20:18:00 46° N
CENTAUR R/B 2.9 20:19:39 10° WSW 20:25:47 64° NW 20:33:11 10° NE
USA 281 3.9 20:54:08 46° N 20:54:08 46° N 20:59:01 10° NNW
NOSS 3-2 (C) 4.2 20:50:38 10° WSW 21:02:27 13° NE 21:03:04 10° NE
Cosmos 1943 Rocket 3.6 20:53:21 10° NW 20:56:57 34° WNW 20:56:57 34° WNW
Cosmos 2237 Rocket 4.0 20:57:57 10° WSW 21:02:52 29° NW 21:07:47 10° NNE
CENTAUR R/B 4.2 22:11:53 10° WNW 22:17:55 33° NNW 22:24:54 10° NE
ATLAS 3B R/B 4.3 23:35:00 28° NNE 23:35:00 28° NNE 23:39:02 10° NE
